Wind_Speed
40 40 41 41 42 40 38 37 38 41 38 31 26 21 23 28 32 34 34 35 38 36 32 35 33 29 17 19 16 14 19 12 17 17 16 6 7 16 20 13 11 18 24 24 33 46 37 45 42 46 48 39 44 53
40 40 40 40 42 42 42 39 37 38 39 35 28 25 21 23 28 31 32 34 35 37 33 34 33 27 26 20 13 10 12 7 9 8 12 16 8 11 18 18 16 18 23 23 27 41 49 46 48 45 37 39 41 52
40 40 40 39 40 42 42 43 39 36 38 37 31 26 24 19 24 28 29 31 32 32 34 32 30 27 24 16 14 4 8 6 3 3 7 12 13 10 10 7 14 13 14 20 25 32 41 49 48 45 41 38 40 43
43 42 40 39 38 40 42 43 42 37 37 37 35 27 25 22 19 23 26 27 26 28 30 31 31 31 33 27 13 10 10 8 6 4 8 9 10 12 10 11 16 20 15 18 19 26 34 44 48 47 45 40 38 40
44 43 42 37 37 39 40 41 43 39 36 38 35 30 24 23 18 18 22 22 22 22 26 30 30 29 32 28 23 17 13 11 8 7 7 10 9 15 15 12 15 19 23 23 27 23 27 36 41 43 45 45 38 37
46 46 45 39 37 37 39 40 41 42 36 36 36 33 26 21 19 13 16 18 16 17 19 24 27 27 26 28 22 15 14 12 12 12 13 11 12 11 14 16 14 18 24 25 30 28 28 27 33 36 39 43 43 38
46 48 46 42 37 36 37 38 39 40 34 34 35 34 30 21 18 14 10 13 14 14 15 17 21 24 24 23 22 23 18 13 14 15 16 13 11 10 4 12 14 16 19 26 28 34 28 23 27 31 35 42 42 41
49 48 45 44 38 37 35 37 36 36 35 33 34 34 31 24 18 16 12 10 12 12 12 14 16 17 21 22 18 15 14 14 11 13 15 14 11 7 5 5 14 15 18 28 25 32 29 25 25 25 26 36 43 39
50 47 48 48 39 37 35 35 33 35 33 30 31 31 31 27 20 16 13 10 9 11 11 10 13 14 17 20 16 17 16 10 10 11 11 14 14 13 6 6 11 16 18 22 25 27 32 30 26 25 25 27 39 44
51 50 51 49 43 34 35 33 32 31 30 27 28 29 29 27 22 18 15 12 10 10 11 12 13 14 15 16 18 14 12 12 13 14 12 11 12 14 20 10 14 14 16 19 19 23 27 34 31 27 26 28 32 39
53 51 50 50 42 34 35 33 29 28 28 26 25 28 29 29 25 19 16 13 10 12 13 14 14 14 15 14 14 14 12 11 12 13 11 10 9 13 12 15 11 16 19 17 16 21 26 32 33 30 28 30 32 35
53 49 46 43 38 35 34 35 28 28 25 24 24 25 26 27 24 19 17 16 14 13 14 14 16 17 16 16 13 11 11 11 11 12 12 12 12 12 13 13 12 11 14 23 21 19 19 30 35 31 30 32 33 35
42 42 40 41 38 36 33 36 30 27 26 24 23 24 24 24 24 22 20 18 17 16 14 14 13 15 17 19 18 14 12 13 13 10 10 11 10 13 18 22 10 11 9 15 23 25 23 24 34 36 31 32 34 36
34 34 36 37 38 38 34 33 32 28 27 26 24 22 24 24 23 24 24 23 18 17 15 16 15 13 14 15 16 17 18 18 17 15 14 12 12 12 14 16 20 14 13 4 17 28 27 25 26 33 37 36 32 30
31 31 34 34 33 32 28 30 31 28 28 26 27 24 22 23 23 24 24 24 22 20 17 15 15 14 13 13 14 17 18 19 18 17 17 16 16 16 15 13 12 15 14 8 2 11 25 29 29 31 33 31 38 41
32 31 33 31 31 30 28 30 32 28 26 25 25 28 23 24 24 23 24 23 23 21 19 15 14 16 16 16 15 17 18 18 18 18 15 16 14 15 15 14 12 9 9 9 3 2 6 21 32 37 37 34 32 33
31 32 32 31 29 30 29 28 30 31 29 26 26 28 25 23 24 24 23 22 22 19 18 19 20 20 23 22 17 16 17 18 17 18 17 16 15 18 14 13 14 14 11 7 6 4 5 5 12 29 35 38 37 36
32 32 29 29 28 30 29 29 32 31 27 23 25 29 27 25 24 24 24 23 22 19 19 21 25 25 25 26 21 16 16 16 18 19 18 18 17 18 18 16 12 12 15 15 12 9 7 8 8 10 19 31 40 41
33 33 31 30 29 29 29 27 30 30 26 26 26 30 29 26 26 26 24 24 23 23 21 22 25 27 27 29 21 16 15 17 17 17 18 18 18 19 18 18 17 14 13 14 16 17 17 14 11 13 18 20 26 40
36 35 34 32 32 31 30 28 26 27 26 24 26 31 30 30 29 28 25 24 24 24 21 23 25 25 26 26 17 16 15 15 16 17 17 17 18 18 20 20 20 19 19 19 17 18 20 23 23 21 19 20 25 25
41 40 38 36 35 35 32 29 27 27 26 24 25 29 30 29 29 29 26 25 24 25 22 24 26 24 25 19 16 17 17 17 16 15 17 16 17 17 20 20 21 22 22 22 23 21 20 22 24 26 30 30 26 23
46 44 43 43 41 40 34 31 30 28 30 27 27 30 30 28 30 32 31 27 24 30 25 24 25 23 22 18 19 19 20 18 17 17 18 20 18 17 19 21 20 21 22 24 26 26 27 28 27 27 28 29 33 34
51 49 48 47 47 47 41 35 33 32 34 31 31 33 32 31 29 26 23 23 28 30 25 24 24 22 21 22 23 21 20 19 20 21 21 21 20 19 18 20 21 22 24 24 26 29 29 29 31 30 29 29 28 29
57 56 54 53 52 51 48 41 37 36 39 38 38 37 36 34 31 28 23 23 28 26 24 23 23 23 22 23 23 21 19 21 22 23 23 21 18 19 20 19 20 20 21 24 26 28 28 28 29 31 28 27 29 28
56 55 56 54 53 51 49 45 41 40 40 40 41 40 39 37 35 29 24 28 29 27 26 26 24 23 23 24 24 22 21 23 23 22 24 24 23 21 20 20 21 22 24 25 27 29 30 31 31 29 25 22 23 26
58 59 56 56 55 54 53 49 45 42 43 43 44 42 42 43 39 32 28 32 31 28 28 27 26 25 25 24 24 24 24 24 23 24 24 23 22 21 22 23 23 22 24 25 25 28 29 27 26 26 24 21 22 22
49 50 48 47 47 49 50 47 45 46 49 47 46 46 45 45 42 34 31 34 34 31 29 28 26 26 26 26 25 25 25 25 25 25 24 24 23 22 23 24 23 23 23 23 23 23 24 25 26 27 26 24 22 23
33 32 33 36 40 41 42 41 41 45 46 46 46 47 47 47 43 37 34 34 33 31 31 29 28 28 28 27 27 26 26 26 26 26 25 24 23 21 22 22 23 22 22 20 20 19 19 20 22 24 26 28 27 24
26 29 31 30 32 32 32 37 41 42 42 44 48 50 50 52 47 39 36 33 34 33 31 29 28 28 28 28 27 27 27 27 26 25 25 24 24 23 22 21 21 22 21 20 19 19 21 22 24 27 28 28 26 26
29 33 33 34 36 37 34 34 36 40 43 44 47 48 47 43 44 40 35 34 33 32 30 29 29 29 29 28 27 26 27 27 27 26 25 23 20 23 26 27 26 25 24 23 23 21 22 25 25 24 22 26 26 29
27 30 30 32 33 34 36 36 38 39 39 38 39 40 37 37 40 33 32 32 30 30 29 29 29 28 28 28 27 26 27 28 28 27 26 26 26 28 31 30 29 30 29 29 26 25 27 27 28 28 28 29 28 28
15 17 21 23 24 28 31 31 30 31 31 30 28 27 26 27 26 24 25 27 26 26 27 26 26 26 27 26 26 25 27 29 29 28 26 29 31 33 34 34 32 30 28 29 29 30 29 30 31 32 32 32 32 30
14 16 19 20 19 21 23 27 27 24 23 21 19 19 20 21 23 22 23 24 24 24 24 25 26 26 24 23 24 27 33 36 38 36 35 36 38 40 39 30 26 31 32 31 33 33 34 36 34 33 34 33 31 31
Wind_Direction
341 341 343 346 346 349 346 345 349 352 352 348 346 344 352 356 356 355 358 0 359 2 3 4 5 358 0 359 7 10 19 2 13 46 51 78 87 154 136 145 175 200 201 208 205 200 200 203 199 202 198 188 180 188
338 339 337 341 344 346 346 344 343 344 346 347 344 344 338 349 355 357 359 5 4 4 3 2 4 5 358 339 348 357 355 360 2 28 42 53 101 153 169 179 144 165 207 206 203 208 208 206 201 205 194 192 184 187
336 336 335 335 340 344 345 344 345 343 341 342 345 341 340 337 349 357 360 5 7 7 12 9 12 14 18 7 357 16 342 334 346 5 339 26 91 129 148 176 187 172 185 197 205 209 212 213 210 205 192 192 192 185
333 334 334 331 334 339 343 344 344 345 341 339 340 343 340 336 340 352 358 2 6 9 17 19 19 17 20 24 16 6 14 44 53 34 69 70 83 122 159 161 160 178 180 192 195 205 210 213 217 214 201 192 193 189
326 328 330 331 328 332 336 341 342 345 342 339 338 337 344 340 334 346 352 357 2 5 16 23 25 23 25 31 36 47 46 45 66 54 83 79 77 125 148 170 166 184 192 191 193 193 201 210 216 218 210 201 197 193
322 324 327 330 328 326 330 336 339 344 338 338 337 336 337 342 339 341 342 350 351 360 10 21 24 25 29 35 36 29 31 46 45 41 51 59 68 110 151 175 178 204 208 194 186 192 196 201 207 211 217 207 205 199
319 318 321 324 326 323 324 329 335 340 340 336 336 335 334 339 342 336 337 346 350 355 6 13 19 24 28 29 45 48 47 56 66 65 56 52 50 53 117 176 185 192 215 209 190 193 195 198 202 203 208 214 207 207
317 313 315 317 320 320 322 323 329 335 340 334 335 334 332 335 339 338 325 329 343 348 353 4 13 11 21 31 36 52 55 45 45 30 35 42 37 41 25 228 213 219 210 214 197 196 200 199 200 196 200 211 211 208
310 309 311 311 314 316 318 319 324 329 337 331 333 334 332 334 336 335 330 315 322 334 340 350 7 5 6 14 23 25 26 28 39 32 27 16 23 24 19 246 217 214 217 212 223 220 210 210 211 207 202 201 209 211
304 308 307 304 307 311 313 315 319 323 332 329 329 333 333 331 330 331 327 324 305 311 320 332 341 348 352 354 359 9 19 14 8 2 5 14 14 16 37 25 217 206 211 208 208 219 225 221 221 215 210 207 207 210
303 303 301 299 299 305 308 309 312 316 322 322 323 328 331 334 330 328 321 321 315 299 301 311 320 329 334 339 345 349 5 23 19 20 25 23 23 42 29 24 22 218 211 207 210 219 226 231 228 223 208 207 205 208
296 294 293 291 295 301 301 302 306 308 313 315 313 312 322 328 332 330 328 324 320 313 301 293 284 291 300 319 332 333 340 355 7 18 15 19 4 347 341 355 23 29 239 215 224 226 230 230 234 230 204 197 200 205
286 284 287 290 292 295 298 298 300 301 305 310 317 313 311 316 325 331 330 331 327 319 316 310 302 293 286 289 293 302 309 320 331 340 354 2 4 0 1 12 9 15 8 230 206 214 220 233 230 229 220 209 205 206
288 290 289 286 286 288 290 291 294 297 298 303 308 314 310 312 307 316 320 324 326 319 315 312 309 301 297 292 288 288 290 296 300 303 312 319 329 341 353 6 6 15 27 2 227 225 222 224 231 235 229 219 220 213
288 291 292 291 291 293 291 285 287 291 293 297 300 306 311 310 312 311 312 313 317 313 316 321 322 321 311 298 290 287 288 291 295 299 303 304 306 310 316 328 348 1 9 29 327 227 220 223 223 228 235 238 235 228
288 287 287 289 291 291 288 285 289 289 287 290 294 297 302 309 310 313 312 314 312 309 305 310 319 327 322 311 294 284 286 289 292 298 293 302 302 307 307 306 313 327 351 8 32 227 227 217 217 225 230 232 238 250
286 286 287 290 291 289 287 285 285 284 286 285 289 290 293 297 305 310 311 314 316 312 301 303 302 314 322 326 300 285 283 286 286 287 291 294 296 304 303 304 301 304 303 309 334 284 250 229 227 221 226 232 234 242
280 281 283 285 285 285 290 291 290 290 291 285 282 284 287 289 291 299 307 305 307 307 303 304 306 306 312 325 310 295 278 278 282 285 285 289 295 298 308 314 308 300 296 290 282 276 278 256 239 237 240 237 233 233
278 280 282 283 284 284 284 284 286 291 294 287 281 280 283 283 283 288 294 301 297 297 302 301 306 307 310 321 312 296 286 280 278 281 287 292 289 294 299 300 304 312 307 294 287 278 269 265 252 243 244 247 248 239
275 276 278 280 281 281 284 287 289 290 287 285 281 277 278 279 281 283 284 292 291 292 298 298 303 309 312 318 307 305 302 290 282 283 283 286 291 294 294 294 292 292 298 305 300 291 285 276 265 258 252 250 245 248
273 273 276 277 279 281 284 287 288 287 287 284 277 277 277 280 283 283 283 286 282 284 286 292 301 305 312 307 307 311 310 300 293 290 289 288 289 290 290 289 288 285 290 291 290 294 292 287 285 278 270 266 264 255
272 272 274 276 276 276 279 284 283 286 285 286 282 274 276 281 285 277 278 282 280 277 280 284 292 298 305 294 300 304 302 300 300 296 294 296 299 297 292 292 291 286 285 284 286 285 284 288 289 288 287 281 272 267
271 271 271 272 273 275 277 278 279 282 283 282 279 279 277 274 280 283 277 281 272 273 280 280 284 287 292 288 294 295 293 300 304 302 299 300 304 297 291 290 287 287 290 288 285 284 286 289 290 291 288 286 285 280
268 268 269 269 271 274 276 275 275 277 276 276 277 276 276 275 274 273 276 270 265 274 277 279 281 283 287 285 291 290 290 299 302 303 302 303 300 287 291 291 286 285 287 287 288 289 289 290 290 292 294 287 284 284
266 267 267 268 270 271 272 272 271 273 272 268 268 271 273 273 270 266 267 266 268 268 270 274 279 283 285 283 288 288 290 295 298 298 297 300 297 288 281 284 286 285 289 290 290 291 289 289 290 292 294 288 282 282
266 266 266 268 268 268 268 268 267 264 262 259 261 260 263 265 266 266 261 262 263 265 267 268 273 278 282 283 286 284 288 293 295 295 294 288 284 281 283 286 291 293 295 295 292 291 293 293 290 292 292 286 281 280
270 271 270 267 265 263 261 260 258 253 250 249 249 251 253 257 260 261 257 257 260 263 264 266 269 273 277 280 280 282 287 290 293 293 288 282 282 282 284 289 293 294 294 294 298 298 293 292 290 292 298 298 289 282
270 267 264 261 262 262 259 255 251 248 246 245 243 247 250 253 254 254 255 256 259 260 260 263 265 269 271 274 275 278 284 288 291 290 286 281 281 282 281 284 284 285 293 300 309 303 300 301 303 304 306 310 310 302
265 263 263 263 263 264 262 257 251 247 244 242 239 238 241 246 251 252 253 253 254 257 259 261 262 264 266 267 269 275 282 285 284 283 278 273 269 266 277 289 293 293 299 296 301 290 285 290 295 303 300 300 311 309
267 266 266 265 263 261 259 257 251 245 243 244 243 241 243 247 249 249 250 251 254 257 259 258 257 258 260 263 267 273 277 278 274 270 266 269 259 272 287 293 291 288 287 280 289 282 285 281 288 306 302 304 310 319
271 264 261 259 262 262 260 258 256 250 246 246 246 246 248 251 252 251 251 251 251 252 251 251 254 255 255 259 265 266 265 267 267 268 271 275 278 285 290 289 289 291 289 288 285 279 284 286 286 289 288 287 292 303
289 290 281 272 264 259 257 258 257 253 249 248 247 250 251 252 253 248 247 248 249 251 252 252 251 251 257 261 262 262 259 263 263 266 274 278 274 280 289 288 285 286 289 286 281 281 283 284 285 289 285 280 284 288
286 289 288 279 265 260 256 251 250 249 248 249 244 240 237 237 239 242 246 251 254 252 250 250 252 255 259 257 246 250 264 270 270 272 275 277 277 282 286 277 275 279 283 286 281 280 284 289 288 278 273 279 283 281
Height
5725 5718 5712 5705 5698 5692 5685 5678 5670 5662 5655 5647 5639 5633 5627 5620 5613 5606 5599 5591 5584 5578 5571 5565 5559 5553 5548 5544 5540 5538 5536 5532 5529 5527 5526 5525 5526 5528 5532 5536 5541 5547 5553 5559 5568 5576 5585 5592 5601 5609 5617 5631 5640 5649
5722 5715 5709 5702 5695 5689 5682 5676 5668 5660 5653 5646 5638 5631 5625 5619 5614 5607 5600 5593 5586 5578 5572 5565 5559 5553 5547 5542 5539 5537 5535 5534 5533 5531 5529 5528 5527 5529 5533 5536 5540 5546 5552 5557 5566 5572 5580 5587 5597 5605 5619 5629 5638 5646
5718 5711 5705 5699 5692 5686 5679 5672 5666 5659 5651 5644 5637 5630 5623 5618 5613 5608 5601 5594 5588 5582 5574 5566 5559 5554 5547 5541 5538 5534 5533 5533 5533 5532 5531 5529 5528 5530 5531 5535 5539 5546 5549 5555 5562 5568 5577 5585 5592 5603 5615 5624 5634 5642
5712 5707 5701 5695 5689 5683 5676 5669 5663 5657 5649 5642 5635 5628 5622 5616 5612 5607 5602 5596 5589 5584 5578 5571 5563 5556 5549 5542 5538 5535 5534 5534 5534 5533 5533 5531 5530 5530 5533 5536 5540 5546 5550 5554 5559 5564 5572 5579 5588 5600 5611 5620 5628 5638
5707 5702 5697 5692 5686 5679 5673 5667 5660 5654 5647 5640 5634 5627 5621 5615 5610 5606 5602 5596 5591 5587 5580 5574 5568 5562 5555 5548 5543 5539 5539 5538 5537 5536 5535 5533 5532 5532 5534 5536 5538 5542 5547 5552 5555 5561 5567 5576 5585 5595 5606 5616 5624 5634
5702 5696 5691 5686 5681 5676 5669 5663 5657 5652 5645 5638 5631 5625 5619 5613 5608 5605 5601 5597 5593 5588 5583 5578 5573 5568 5562 5556 5550 5547 5544 5543 5541 5540 5537 5536 5534 5535 5535 5536 5538 5541 5545 5549 5554 5559 5565 5572 5579 5589 5600 5610 5620 5629
5695 5689 5685 5680 5676 5670 5665 5659 5653 5647 5642 5636 5629 5623 5617 5612 5606 5603 5601 5596 5592 5588 5584 5581 5576 5572 5567 5562 5557 5553 5549 5546 5544 5542 5541 5539 5538 5536 5536 5537 5538 5539 5543 5549 5553 5558 5564 5570 5576 5584 5594 5605 5614 5623
5687 5682 5677 5673 5670 5665 5660 5654 5648 5643 5639 5634 5627 5621 5614 5609 5604 5601 5598 5595 5591 5588 5584 5581 5578 5575 5570 5566 5563 5560 5556 5553 5550 5547 5545 5542 5541 5538 5537 5536 5538 5540 5543 5548 5552 5557 5562 5568 5574 5581 5589 5599 5609 5617
5678 5674 5669 5664 5661 5658 5653 5649 5644 5638 5634 5629 5624 5619 5613 5606 5602 5598 5595 5592 5590 5588 5584 5581 5578 5575 5572 5569 5565 5562 5559 5556 5553 5551 5548 5546 5542 5538 5535 5534 5535 5537 5540 5544 5549 5555 5559 5564 5571 5578 5586 5594 5603 5612
5667 5664 5660 5655 5653 5651 5645 5643 5638 5633 5629 5625 5620 5616 5612 5605 5599 5595 5591 5588 5586 5584 5581 5578 5575 5573 5572 5569 5566 5564 5560 5558 5555 5553 5549 5546 5544 5540 5538 5534 5533 5535 5536 5539 5545 5551 5555 5560 5566 5573 5581 5589 5597 5605
5656 5653 5650 5645 5643 5642 5637 5634 5631 5627 5623 5619 5616 5611 5607 5602 5597 5592 5588 5585 5582 5580 5578 5576 5574 5572 5570 5568 5566 5564 5561 5558 5557 5555 5551 5548 5546 5543 5541 5537 5535 5534 5534 5535 5540 5545 5550 5555 5560 5566 5574 5582 5590 5599
5643 5640 5637 5633 5632 5632 5630 5625 5623 5620 5617 5615 5611 5608 5604 5600 5596 5591 5586 5582 5579 5576 5574 5572 5571 5568 5567 5566 5564 5563 5560 5559 5557 5554 5553 5550 5547 5544 5540 5538 5535 5534 5531 5533 5536 5541 5545 5549 5554 5560 5568 5576 5583 5591
5631 5628 5626 5623 5622 5621 5621 5617 5615 5612 5610 5607 5605 5602 5599 5596 5592 5588 5584 5580 5576 5573 5571 5568 5567 5565 5563 5561 5560 5559 5558 5557 5555 5553 5552 5550 5548 5545 5542 5538 5534 5532 5530 5529 5531 5536 5540 5545 5550 5556 5563 5571 5577 5583
5618 5616 5612 5610 5611 5610 5609 5607 5605 5604 5601 5600 5598 5596 5593 5590 5587 5584 5581 5577 5574 5570 5567 5565 5563 5561 5559 5557 5555 5554 5553 5552 5551 5549 5548 5547 5545 5544 5542 5538 5536 5532 5529 5528 5528 5531 5536 5540 5546 5550 5556 5563 5571 5577
5607 5605 5601 5600 5600 5599 5599 5595 5594 5594 5593 5592 5591 5588 5587 5584 5581 5578 5575 5573 5570 5567 5564 5562 5559 5558 5555 5552 5550 5549 5547 5546 5545 5545 5543 5542 5541 5540 5539 5538 5535 5532 5529 5528 5526 5527 5529 5533 5538 5543 5550 5555 5561 5568
5596 5595 5592 5592 5590 5588 5589 5586 5584 5585 5584 5584 5584 5580 5579 5577 5574 5572 5570 5567 5566 5563 5560 5558 5556 5554 5551 5548 5546 5543 5542 5540 5539 5538 5537 5536 5535 5534 5534 5534 5533 5532 5530 5528 5527 5527 5527 5527 5531 5536 5541 5546 5551 5556
5584 5585 5584 5582 5581 5578 5579 5578 5575 5575 5576 5576 5575 5572 5572 5570 5567 5565 5564 5562 5560 5558 5556 5553 5551 5549 5547 5544 5541 5538 5537 5535 5534 5533 5532 5531 5529 5528 5529 5528 5527 5527 5527 5526 5525 5525 5525 5524 5526 5529 5533 5537 5541 5545
5575 5574 5573 5573 5572 5570 5569 5568 5566 5566 5566 5566 5565 5563 5564 5563 5560 5558 5557 5556 5555 5553 5551 5549 5546 5544 5541 5539 5535 5533 5532 5531 5529 5528 5527 5526 5525 5523 5523 5522 5522 5521 5520 5520 5521 5521 5521 5520 5520 5522 5525 5527 5529 5532
5564 5563 5563 5562 5562 5561 5560 5562 5558 5556 5558 5556 5556 5554 5554 5554 5552 5551 5550 5549 5547 5547 5546 5543 5540 5537 5535 5533 5529 5527 5526 5525 5524 5523 5522 5521 5521 5519 5518 5517 5515 5515 5514 5514 5513 5514 5515 5515 5515 5516 5517 5520 5521 5522
5552 5551 5551 5551 5550 5550 5551 5552 5551 5549 5549 5548 5546 5543 5544 5544 5544 5542 5542 5542 5540 5539 5539 5537 5533 5531 5529 5527 5523 5521 5521 5520 5519 5518 5518 5516 5514 5514 5513 5512 5511 5510 5508 5507 5507 5507 5507 5507 5508 5509 5511 5512 5511 5512
5538 5537 5538 5538 5538 5538 5541 5541 5540 5540 5539 5539 5537 5534 5534 5534 5533 5533 5533 5532 5532 5531 5531 5529 5527 5525 5523 5521 5519 5516 5515 5514 5513 5512 5511 5511 5510 5509 5507 5506 5505 5504 5503 5502 5501 5500 5500 5499 5498 5499 5499 5500 5502 5503
5523 5523 5523 5522 5524 5525 5529 5530 5529 5529 5527 5528 5527 5525 5525 5525 5524 5523 5522 5522 5523 5520 5523 5522 5520 5518 5516 5514 5512 5511 5509 5508 5507 5506 5505 5504 5504 5503 5501 5499 5498 5497 5497 5495 5494 5493 5493 5492 5490 5490 5489 5488 5488 5489
5505 5506 5507 5508 5508 5509 5516 5519 5518 5517 5514 5517 5516 5514 5515 5514 5515 5514 5515 5514 5511 5510 5513 5513 5511 5510 5509 5507 5505 5503 5502 5501 5500 5499 5498 5498 5497 5495 5493 5492 5491 5490 5488 5488 5487 5485 5485 5485 5482 5481 5480 5479 5478 5477
5484 5487 5489 5490 5493 5495 5497 5502 5504 5505 5503 5503 5502 5502 5503 5504 5504 5505 5507 5505 5501 5503 5504 5504 5502 5501 5500 5499 5497 5496 5495 5494 5493 5492 5490 5490 5490 5487 5486 5485 5484 5483 5482 5480 5479 5477 5478 5476 5474 5472 5471 5469 5468 5467
5464 5468 5470 5473 5474 5478 5480 5482 5486 5488 5488 5488 5488 5488 5490 5489 5491 5495 5497 5495 5492 5493 5494 5494 5493 5492 5491 5490 5488 5488 5487 5486 5485 5485 5482 5482 5481 5480 5479 5478 5477 5476 5474 5473 5471 5470 5469 5467 5465 5463 5462 5460 5459 5458
5443 5446 5451 5453 5455 5457 5459 5463 5466 5469 5469 5470 5471 5474 5475 5473 5476 5482 5485 5482 5482 5483 5484 5484 5484 5483 5482 5481 5480 5479 5478 5477 5476 5475 5474 5473 5472 5471 5470 5469 5468 5468 5466 5465 5464 5462 5459 5458 5456 5455 5453 5452 5451 5450
5425 5427 5430 5431 5432 5432 5435 5440 5443 5445 5445 5449 5454 5456 5457 5457 5461 5467 5470 5469 5470 5471 5472 5473 5473 5473 5472 5472 5471 5470 5469 5468 5467 5466 5465 5463 5462 5462 5461 5460 5460 5459 5459 5457 5456 5453 5451 5450 5448 5447 5445 5443 5442 5441
5410 5410 5411 5411 5411 5414 5417 5421 5423 5425 5427 5431 5436 5440 5441 5443 5446 5451 5455 5458 5458 5459 5459 5460 5461 5461 5461 5461 5461 5460 5460 5458 5457 5456 5455 5454 5453 5453 5452 5452 5452 5451 5450 5448 5447 5445 5444 5442 5441 5439 5437 5435 5434 5433
5396 5396 5397 5399 5399 5400 5401 5403 5406 5409 5412 5414 5418 5421 5424 5426 5431 5437 5440 5443 5445 5446 5447 5448 5449 5450 5449 5450 5449 5449 5449 5448 5447 5446 5445 5445 5444 5444 5444 5443 5442 5441 5441 5441 5440 5438 5437 5435 5433 5432 5430 5429 5426 5424
5385 5383 5384 5385 5385 5386 5388 5390 5391 5394 5396 5399 5402 5407 5411 5415 5416 5422 5426 5428 5430 5433 5434 5436 5437 5437 5437 5438 5438 5438 5437 5437 5437 5437 5437 5437 5435 5435 5434 5433 5432 5432 5432 5431 5431 5430 5429 5428 5426 5425 5423 5422 5419 5417
5372 5372 5372 5373 5374 5375 5375 5376 5377 5380 5384 5387 5390 5394 5399 5402 5404 5410 5413 5415 5417 5419 5421 5423 5424 5425 5426 5426 5427 5427 5427 5427 5426 5427 5427 5426 5425 5425 5424 5423 5422 5421 5421 5421 5420 5420 5419 5418 5416 5416 5415 5413 5411 5410
5364 5363 5362 5363 5364 5364 5364 5366 5369 5372 5375 5379 5383 5386 5390 5393 5395 5399 5401 5403 5405 5407 5409 5410 5412 5414 5415 5415 5415 5415 5416 5416 5416 5417 5416 5417 5416 5415 5414 5413 5412 5411 5410 5409 5409 5408 5408 5407 5406 5406 5405 5404 5402 5400
5359 5359 5357 5355 5355 5355 5356 5357 5361 5365 5369 5373 5377 5380 5382 5385 5387 5390 5392 5394 5395 5397 5399 5400 5401 5403 5404 5405 5406 5406 5405 5406 5407 5407 5406 5406 5405 5404 5403 5402 5401 5400 5400 5398 5397 5397 5396 5395 5394 5394 5393 5392 5391 5389